Location: Newark
(48.1500°N, 2.9667°W)
Time: 08:16:03
(UTC+00:00)

Explorer 11/Cluster Stage 4 - All Passes

Search period start: 28 January 2020 00:00
Search period end: 07 February 2020 00:00
Orbit: 467 x 1259 km, 28.8° (Epoch: 27 January)

Date Brightness Start Highest point End Pass type
(mag) Time Alt. Az. Time Alt. Az. Time Alt. Az.
28 Jan - 13:05:51 10° SSW 13:10:09 15° SSE 13:14:24 10° SE daylight
28 Jan - 14:52:56 10° SW 14:57:59 18° S 15:02:52 10° SE daylight
28 Jan - 16:42:37 10° SW 16:45:41 13° SSW 16:48:37 10° S daylight
29 Jan - 12:54:32 10° SSW 12:59:04 16° SSE 13:03:37 10° SE daylight
29 Jan - 14:41:49 10° SW 14:46:56 18° S 14:51:54 10° SE daylight
29 Jan - 16:31:52 10° SW 16:34:37 12° SSW 16:37:19 10° S daylight
30 Jan - 12:43:20 10° SSW 12:47:59 17° S 12:52:44 10° SE daylight
30 Jan - 14:30:48 10° SW 14:35:51 18° S 14:40:50 10° SSE daylight
30 Jan - 16:21:18 10° SW 16:23:33 11° SSW 16:25:46 10° S daylight
31 Jan - 12:32:12 10° SSW 12:36:55 17° S 12:41:47 10° SE daylight
31 Jan - 14:19:51 10° SW 14:24:47 17° S 14:29:43 10° SSE daylight
31 Jan - 16:11:11 10° SSW 16:12:29 10° SSW 16:13:46 10° SSW daylight
01 Feb - 10:37:25 10° SSE 10:38:16 10° SSE 10:39:08 10° SSE daylight
01 Feb - 12:21:10 10° SSW 12:25:52 17° S 12:30:45 10° SE daylight
01 Feb - 14:08:58 10° SW 14:13:43 17° S 14:18:30 10° SSE daylight
02 Feb - 10:25:37 10° S 10:27:14 11° SSE 10:28:51 10° SE daylight
02 Feb - 12:10:13 10° SSW 12:14:48 17° S 12:19:39 10° SE daylight
02 Feb - 13:58:11 10° SW 14:02:40 16° S 14:07:12 10° SSE daylight
03 Feb - 10:14:18 10° S 10:16:12 11° SSE 10:18:10 10° SE daylight
03 Feb - 11:59:20 10° SSW 12:03:46 17° S 12:08:30 10° SE daylight
03 Feb - 13:47:30 10° SW 13:51:35 15° SSW 13:55:47 10° SSE daylight
04 Feb - 10:03:10 10° S 10:05:11 11° SSE 10:07:17 10° SE daylight
04 Feb - 11:48:32 10° SSW 11:52:45 16° S 11:57:16 10° SE daylight
04 Feb - 13:36:57 10° SW 13:40:32 14° SSW 13:44:15 10° SSE daylight
05 Feb - 09:52:12 10° S 09:54:12 11° SSE 09:56:17 10° SE daylight
05 Feb - 11:37:50 10° SSW 11:41:44 16° S 11:45:58 10° SE daylight
05 Feb - 13:26:37 10° SW 13:29:30 12° SSW 13:32:29 10° S daylight
06 Feb - 09:41:23 10° S 09:43:14 11° SSE 09:45:11 10° SSE daylight
06 Feb - 11:27:12 10° SSW 11:30:46 15° S 11:34:36 10° SSE daylight
06 Feb - 13:16:41 10° SSW 13:18:28 11° SSW 13:20:18 10° S daylight
